Regional Weather Roundup
Issued by NWS Sterling, VA

Home | Current Version | Previous Version | Graphics & Text | Print | Product List | Glossary On
Versions: 1 2 3 4 5 6 7 8 9 10 11 12 13 14 15 16 17 18 19 20 21 22 23 24 25 26 27 28 29 30 31 32 33 34 35 36 37 38 39 40 41 42 43 44 45 46 47 48 49 50
172
ASUS41 KLWX 241810
RWRLWX

REGIONAL WEATHER ROUNDUP
NATIONAL WEATHER SERVICE BALTIMORE MD/WASHINGTON DC
200 PM EDT WED AUG 24 2016

Note: "FAIR" indicates few or no clouds below 12,000 feet
with no significant weather and/or obstructions to visibility.
 TC=TEMPERATURE CELSIUS

 * =Non NWS site. Station does not report precipitation (e.g. rain,
    snow, etc.), thunder, or fog.

DCZ001-MDZ009-015-VAZ040>042-051-053>054-241900-
WASHINGTON METRO

CITY           SKY/WX    TMP DP  RH WIND       PRES   REMARKS
WASHINGTON NAT MOSUNNY   84  65  52 S12       30.25F
DULLES         MOSUNNY   85  63  47 S13G20    30.24F
ANDREWS AFB    SUNNY     84  64  50 SW9       30.25F
FT BELVOIR     SUNNY     83  65  54 S8        30.25F
QUANTICO       MOSUNNY   83  67  58 S13       30.26F
COLLEGE PARK*  SUNNY     82  61  47 S7        30.24F
LEESBURG*      MOSUNNY   88  66  48 S15       30.25F HX  90
MANASSAS*      MOSUNNY   84  66  54 S9G16     30.25
GAITHERSBURG*  PTSUNNY   82  63  51 S6        30.28F

$$

MDZ006>007-011-014-241900-
BALTIMORE METRO

CITY           SKY/WX    TMP DP  RH WIND       PRES   REMARKS
BWI AIRPORT    PTSUNNY   82  62  50 VRB3      30.24F
MD SCIENCE CTR   N/A     84  62  47 MISG      30.24F
MARTIN STATE   MOSUNNY   82  70  65 SE10      30.26F
ANNAPOLIS      SUNNY     81  67  62 SE15      30.25F
FORT MEADE*    MOSUNNY   81  63  54 S5        30.26F

$$

MDZ012-015-019>023-241900-
MARYLAND EASTERN SHORE

CITY           SKY/WX    TMP DP  RH WIND       PRES   REMARKS
OCEAN CITY     SUNNY     79  59  50 SE7       30.28F
SALISBURY      SUNNY     83  57  41 SE3       30.26F
BAY BRIDGE AP* SUNNY     84  63  48 S9        30.26S
CAMBRIDGE*     PTSUNNY   81  63  54 S5        30.25F
EASTON*        MOSUNNY   82  64  54 W7        30.30F

$$

MDZ017>025-241900-
SOUTHERN MARYLAND

CITY           SKY/WX    TMP DP  RH WIND       PRES   REMARKS
PATUXENT RIVER PTSUNNY   81  63  54 SE10      30.26F
ST INIGOES     SUNNY     81  62  52 S9        30.26F
LEONARDTOWN*   MOSUNNY   81  61  50 CALM      30.27F

$$

MDZ003>005-241900-
NORTH CENTRAL MARYLAND

CITY           SKY/WX    TMP DP  RH WIND       PRES   REMARKS
FREDERICK*     SUNNY     84  70  61 S6        30.26F
HAGERSTOWN APT MOSUNNY   84  63  49 S12       30.23F

$$

MDZ501>502-241900-
WESTERN MARYLAND

CITY           SKY/WX    TMP DP  RH WIND       PRES   REMARKS
OAKLAND*       MOSUNNY   73  59  60 SW3       30.32F
CUMBERLAND*    MOSUNNY   86  63  45 S6        30.25F

$$

VAZ025>031-241900-
SHENANDOAH VALLEY

CITY           SKY/WX    TMP DP  RH WIND       PRES   REMARKS
WINCHESTER*    MOSUNNY   84  68  58 SE8       30.24F
FRONT ROYAL*   MOCLDY    84  70  61 S3        30.23F
LURAY*         FAIR      84  63  48 SW7       30.24F
NEW MARKET*    CLOUDY   N/A N/A N/A MISG      30.23S
STAUNTON*      MOSUNNY   84  63  48 SW8       30.28F
WAYNESBORO*    CLOUDY    80  64  57 S6        30.28F

$$

WVZ021-048>050-054>055-241900-
EASTERN WEST VIRGINIA PANHANDLE

CITY           SKY/WX    TMP DP  RH WIND       PRES   REMARKS
MARTINSBURG    MOSUNNY   84  67  56 S10       30.23F
PETERSBURG*    PTSUNNY   90  63  40 CALM      30.21F HX  91

$$

VAZ036>039-050-241900-
CENTRAL FOOTHILLS

CITY           SKY/WX    TMP DP  RH WIND       PRES   REMARKS
CHARLOTTESVILL MOSUNNY   85  67  54 S10       30.25F
CULPEPER*      MOSUNNY   85  69  58 S5        30.25F
ORANGE*          N/A     84  66  54 S9        30.27F
GORDONSVILLE*  FAIR      84  68  58 S10       30.24F
WARRENTON*     FAIR      85  62  45 S9        30.24F

$$

VAZ055>057-241900-
NORTH AND CENTRAL PIEDMONT

CITY           SKY/WX    TMP DP  RH WIND       PRES   REMARKS
FREDERICKSBRG*   N/A     85  65  51 S8G16     30.24F
STAFFORD*      MOSUNNY   84  63  48 S7        30.29F

$$

NCZ024-NYZ072-PAZ021-071-VAZ022-071-241900-
OTHER REGIONAL OBSERVATIONS

CITY           SKY/WX    TMP DP  RH WIND       PRES   REMARKS
NEW YORK CITY  SUNNY     86  59  39 CALM      30.24F
PHILADELPHIA   MOSUNNY   83  60  45 W8        30.25F
PITTSBURGH     MOSUNNY   82  60  47 S12G18    30.20F
ROANOKE        CLOUDY    82  68  62 VRB5      30.29F
RICHMOND       PTSUNNY   84  60  44 SE8       30.26F
RALEIGH        PTSUNNY   82  62  50 E6        30.28F

$$

ANZ530>537-241900-
MARINE OBSERVATIONS

STATION/POSITION TIME  TEMP    WIND        PRES
                       AIR SEA DIR/SP/G
                 (UTC) (F)     (DEG/KT/KT) (MB)
THOMAS PT LIGHT  1800   78 82  150/ 11/ 12 1025.8F
BALT KEY BRIDGE  1742   80     140/  9/ 11 1024.2F
COVE POINT       1742   77     180/ 10/ 11 1025.5F
LEWISETTA        1742   78 82  120/  8/ 10 1024.8F
SOLOMONS ISLAND  1742   79 84  130/  9/ 11   N/A
PINEY POINT      1748          160/  9/ 10   N/A

$$





USA.gov is the U.S. government's official web portal to all federal, state and local government web resources and services.